Satellite: OKEAN-4
Catalog number: 23317
Epoch time: 14086.16801105
Element set: 488
Inclination: 082.5389 deg
RA of node: 144.8211 deg
Eccentricity: 0.0020701
Arg of perigee: 015.5034 deg
Mean anomaly: 040.8871 deg
Mean motion: 14.85295080 rev/day
Decay rate: 2.278e-05 rev/day^2
Epoch rev: 5093
Checksum: 280
Satellite: NOAA-14
Catalog number: 23455
Epoch time: 14086.48415271
Element set: 698
Inclination: 098.7798 deg
RA of node: 171.3638 deg
Eccentricity: 0.0008438
Arg of perigee: 270.4063 deg
Mean anomaly: 153.9643 deg
Mean motion: 14.13959869 rev/day
Decay rate: 9.1e-07 rev/day^2
Epoch rev: 99240
Checksum: 351
Satellite: NOAA-15
Catalog number: 25338
Epoch time: 14086.74694450
Element set: 128
Inclination: 098.7493 deg
RA of node: 080.7806 deg
Eccentricity: 0.0011265
Arg of perigee: 029.2678 deg
Mean anomaly: 330.9615 deg
Mean motion: 14.25378733 rev/day
Decay rate: 5.17e-06 rev/day^2
Epoch rev: 82529
Checksum: 333
Satellite: RESURS
Catalog number: 25394
Epoch time: 14086.54261807
Element set: 618
Inclination: 098.4043 deg
RA of node: 054.3909 deg
Eccentricity: 0.0002476
Arg of perigee: 122.3665 deg
Mean anomaly: 012.0324 deg
Mean motion: 14.24382167 rev/day
Decay rate: 1.39e-06 rev/day^2
Epoch rev: 81669
Checksum: 294
Satellite: FENGYUN1
Catalog number: 25730
Epoch time: 14085.83618759
Element set: 110
Inclination: 098.9064 deg
RA of node: 047.4741 deg
Eccentricity: 0.0027716
Arg of perigee: 345.1367 deg
Mean anomaly: 044.6748 deg
Mean motion: 14.11664303 rev/day
Decay rate: 4.660e-05 rev/day^2
Epoch rev: 76590
Checksum: 313
Satellite: OKEAN-0
Catalog number: 25860
Epoch time: 14085.50137292
Element set: 209
Inclination: 098.0340 deg
RA of node: 049.9095 deg
Eccentricity: 0.0001156
Arg of perigee: 083.3093 deg
Mean anomaly: 028.8346 deg
Mean motion: 14.75106638 rev/day
Decay rate: 1.795e-05 rev/day^2
Epoch rev: 78996
Checksum: 320
Satellite: NOAA-16
Catalog number: 26536
Epoch time: 14086.46131111
Element set: 617
Inclination: 098.9988 deg
RA of node: 146.4353 deg
Eccentricity: 0.0011206
Arg of perigee: 061.3061 deg
Mean anomaly: 054.1460 deg
Mean motion: 14.13012115 rev/day
Decay rate: 2.61e-06 rev/day^2
Epoch rev: 69657
Checksum: 275
Satellite: NOAA-17
Catalog number: 27453
Epoch time: 14086.47701999
Element set: 524
Inclination: 098.3132 deg
RA of node: 090.4978 deg
Eccentricity: 0.0012524
Arg of perigee: 059.1677 deg
Mean anomaly: 093.9011 deg
Mean motion: 14.24716708 rev/day
Decay rate: 3.48e-06 rev/day^2
Epoch rev: 61105
Checksum: 318
Satellite: NOAA-18
Catalog number: 28654
Epoch time: 14086.47939508
Element set: 7
Inclination: 099.1413 deg
RA of node: 064.3731 deg
Eccentricity: 0.0015200
Arg of perigee: 131.4633 deg
Mean anomaly: 336.7160 deg
Mean motion: 14.11978689 rev/day
Decay rate: 3.47e-06 rev/day^2
Epoch rev: 45603
Checksum: 307
Satellite: NOAA-19
Catalog number: 33591
Epoch time: 14086.49134758
Element set: 175
Inclination: 098.9384 deg
RA of node: 031.8052 deg
Eccentricity: 0.0013851
Arg of perigee: 354.9723 deg
Mean anomaly: 116.3191 deg
Mean motion: 14.11674546 rev/day
Decay rate: 4.02e-06 rev/day^2
Epoch rev: 26446
Checksum: 314
/EX
SB KEPS @ AMSAT $ORB14086.M
Orbital Elements 14086.MISC
HR AMSAT ORBITAL ELEMENTS FOR MANNED AND MISCELLANEOUS SATELLITES
FROM WA5QGD FORT WORTH,TX March 27, 2014
BID: ORB14086.M
TO ALL RADIO AMATEURS BT
Satellite: HUBBLE
Catalog number: 20580
Epoch time: 14086.64732154
Element set: 467
Inclination: 028.4700 deg
RA of node: 213.0284 deg
Eccentricity: 0.0003441
Arg of perigee: 126.6872 deg
Mean anomaly: 348.9827 deg
Mean motion: 15.05025231 rev/day
Decay rate: 5.283e-05 rev/day^2
Epoch rev: 11242
Checksum: 269
Satellite: ISS
Catalog number: 25544
Epoch time: 14087.01143693
Element set: 961
Inclination: 051.6493 deg
RA of node: 141.8905 deg
Eccentricity: 0.0003532
Arg of perigee: 001.9766 deg
Mean anomaly: 062.7859 deg
Mean motion: 15.51126890 rev/day
Decay rate: 2.1013e-04 rev/day^2
Epoch rev: 87873
Checksum: 303
Satellite: CO-58
Catalog number: 28895
Epoch time: 14086.07157402
Element set: 726
Inclination: 097.8423 deg
RA of node: 292.1781 deg
Eccentricity: 0.0016110
Arg of perigee: 269.7372 deg
Mean anomaly: 090.1984 deg
Mean motion: 14.61705023 rev/day
Decay rate: 2.011e-05 rev/day^2
Epoch rev: 44825
Checksum: 309
Satellite: FALCON
Catalog number: 30776
Epoch time: 14085.64014549
Element set: 831
Inclination: 035.4291 deg
RA of node: 264.3594 deg
Eccentricity: 0.0001704
Arg of perigee: 291.6861 deg
Mean anomaly: 134.4574 deg
Mean motion: 15.14801833 rev/day
Decay rate: 1.7159e-04 rev/day^2
Epoch rev: 38820
Checksum: 301
Satellite: MAST
Catalog number: 31126
Epoch time: 14086.80372809
Element set: 6
Inclination: 097.9083 deg
RA of node: 071.9788 deg
Eccentricity: 0.0091057
Arg of perigee: 247.6889 deg
Mean anomaly: 231.8555 deg
Mean motion: 14.55132832 rev/day
Decay rate: 1.340e-05 rev/day^2
Epoch rev: 36855
Checksum: 323
Satellite: CAPE1
Catalog number: 31130
Epoch time: 14086.47707929
Element set: 11
Inclination: 097.9275 deg
RA of node: 068.2258 deg
Eccentricity: 0.0097778
Arg of perigee: 266.5990 deg
Mean anomaly: 092.4019 deg
Mean motion: 14.54244757 rev/day
Decay rate: 2.187e-05 rev/day^2
Epoch rev: 36793
Checksum: 342
Satellite: COMPASS
Catalog number: 32787
Epoch time: 14086.10862290
Element set: 886
Inclination: 097.7120 deg
RA of node: 141.9749 deg
Eccentricity: 0.0015552
Arg of perigee: 094.0413 deg
Mean anomaly: 266.2582 deg
Mean motion: 14.87304991 rev/day
Decay rate: 6.082e-05 rev/day^2
Epoch rev: 31998
Checksum: 327
Satellite: AAUSAT2
Catalog number: 32788
Epoch time: 14086.15059412
Element set: 873
Inclination: 097.7127 deg
RA of node: 142.9072 deg
Eccentricity: 0.0015046
Arg of perigee: 092.9577 deg
Mean anomaly: 267.3362 deg
Mean motion: 14.87949989 rev/day
Decay rate: 7.738e-05 rev/day^2
Epoch rev: 32004
Checksum: 346
Satellite: DO-64
Catalog number: 32789
Epoch time: 14086.17690826
Element set: 909
Inclination: 097.7301 deg
RA of node: 148.6806 deg
Eccentricity: 0.0013530
Arg of perigee: 083.2254 deg
Mean anomaly: 336.7152 deg
Mean motion: 14.92133798 rev/day
Decay rate: 1.3637e-04 rev/day^2
Epoch rev: 32026
Checksum: 326
Satellite: CO-66
Catalog number: 32791
Epoch time: 14086.12854011
Element set: 868
Inclination: 097.7114 deg
RA of node: 140.9238 deg
Eccentricity: 0.0016108
Arg of perigee: 096.2193 deg
Mean anomaly: 264.0858 deg
Mean motion: 14.86087404 rev/day
Decay rate: 5.197e-05 rev/day^2
Epoch rev: 31986
Checksum: 332
Satellite: RS-30
Catalog number: 32953
Epoch time: 14086.77806273
Element set: 776
Inclination: 082.4986 deg
RA of node: 251.8265 deg
Eccentricity: 0.0018382
Arg of perigee: 335.6583 deg
Mean anomaly: 024.3630 deg
Mean motion: 12.43044286 rev/day
Decay rate: 1.0e-07 rev/day^2
Epoch rev: 26514
Checksum: 307
Satellite: METEOR-M
Catalog number: 35865
Epoch time: 14086.66968077
Element set: 385
Inclination: 098.5603 deg
RA of node: 136.5162 deg
Eccentricity: 0.0002444
Arg of perigee: 352.9202 deg
Mean anomaly: 007.1954 deg
Mean motion: 14.21914448 rev/day
Decay rate: 2.5e-07 rev/day^2
Epoch rev: 23475
Checksum: 306
Satellite: RS-38
Catalog number: 35869
Epoch time: 14086.74783457
Element set: 320
Inclination: 098.5527 deg
RA of node: 136.4201 deg
Eccentricity: 0.0003845
Arg of perigee: 344.5652 deg
Mean anomaly: 148.6999 deg
Mean motion: 14.22193266 rev/day
Decay rate: 1.27e-06 rev/day^2
Epoch rev: 23479
Checksum: 340
Satellite: JUGNU
Catalog number: 37839
Epoch time: 14086.14746227
Element set: 587
Inclination: 019.9627 deg
RA of node: 032.1438 deg
Eccentricity: 0.0018982
Arg of perigee: 159.7020 deg
Mean anomaly: 281.6196 deg
Mean motion: 14.12276548 rev/day
Decay rate: 6.09e-06 rev/day^2
Epoch rev: 12694
Checksum: 328
Satellite: SRMSAT
Catalog number: 37841
Epoch time: 14086.17027123
Element set: 590
Inclination: 019.9729 deg
RA of node: 049.6822 deg
Eccentricity: 0.0012022
Arg of perigee: 102.7742 deg
Mean anomaly: 333.7463 deg
Mean motion: 14.10324089 rev/day
Decay rate: 5.45e-06 rev/day^2
Epoch rev: 12676
Checksum: 283
Satellite: RAX-2
Catalog number: 37853
Epoch time: 14086.50604773
Element set: 760
Inclination: 101.7152 deg
RA of node: 077.2696 deg
Eccentricity: 0.0219942
Arg of perigee: 292.8753 deg
Mean anomaly: 182.5093 deg
Mean motion: 14.88239161 rev/day
Decay rate: 1.3995e-04 rev/day^2
Epoch rev: 13050
Checksum: 324
Satellite: AUBIESAT
Catalog number: 37854
Epoch time: 14086.49638014
Element set: 742
Inclination: 101.7199 deg
RA of node: 078.8372 deg
Eccentricity: 0.0218132
Arg of perigee: 290.5407 deg
Mean anomaly: 191.7482 deg
Mean motion: 14.89459932 rev/day
Decay rate: 1.4430e-04 rev/day^2
Epoch rev: 13054
Checksum: 319
Satellite: HRBE
Catalog number: 37855
Epoch time: 14085.96802094
Element set: 751
Inclination: 101.7196 deg
RA of node: 077.5405 deg
Eccentricity: 0.0220187
Arg of perigee: 293.0593 deg
Mean anomaly: 131.9448 deg
Mean motion: 14.88814755 rev/day
Decay rate: 1.4299e-04 rev/day^2
Epoch rev: 13044
Checksum: 326
Satellite: RS-39
Catalog number: 38051
Epoch time: 14086.79210716
Element set: 393
Inclination: 051.6292 deg
RA of node: 269.5149 deg
Eccentricity: 0.0009884
Arg of perigee: 233.9875 deg
Mean anomaly: 204.4531 deg
Mean motion: 15.49505741 rev/day
Decay rate: 9.6600e-04 rev/day^2
Epoch rev: 12144
Checksum: 324
Satellite: E-STAR
Catalog number: 38079
Epoch time: 14086.41790137
Element set: 795
Inclination: 069.4582 deg
RA of node: 204.4241 deg
Eccentricity: 0.0438348
Arg of perigee: 112.4107 deg
Mean anomaly: 311.1762 deg
Mean motion: 14.90108608 rev/day
Decay rate: 1.47757e-03 rev/day^2
Epoch rev: 11120
Checksum: 297
